Regional Weather Roundup
Issued by NWS

Home | Current Version | Previous Version | Text Only | Print | Product List | Glossary Off
Versions: 1 2 3 4 5 6 7 8 9 10 11 12 13 14 15 16 17 18 19 20 21 22 23 24 25 26 27 28 29 30 31 32 33 34 35 36 37 38 39 40 41 42 43 44 45 46 47 48 49 50

000
ASUS43 KLMK 200702
RWRKY
KENTUCKY REGIONAL WEATHER ROUNDUP
NATIONAL WEATHER SERVICE LOUISVILLE KY
200 AM EST FRI JAN 20 2017

NOTE "FAIR" INDICATES FEW OR NO CLOUDS BELOW 12,000 FEET
WITH NO SIGNIFICANT WEATHER AND/OR OBSTRUCTIONS TO VISIBILITY.

KYZ001>023-026-027-061>063-070>075-200800-
WESTERN AND SOUTH CENTRAL KENTUCKY

CITY           SKY/WX    TMP DP  RH WIND       PRES   REMARKS
PADUCAH        MOCLDY    56  53  90 SW6       29.65R
HENDERSON      CLOUDY    55  54  94 S10       29.62S
OWENSBORO      LGT RAIN  56  55  97 SW10      29.63F
HOPKINSVILLE   MOCLDY    54  54 100 SW6       29.66R
BOWLING GREEN  CLOUDY    58  56  93 SW8       29.67R
GLASGOW        NOT AVBL
$$

KYZ024-025-028>034-038-045-046-053-200800-
NORTH CENTRAL KENTUCKY

CITY           SKY/WX    TMP DP  RH WIND       PRES   REMARKS
LOUISVILLE/SDF LGT RAIN  53  51  93 W7        29.60F FOG
LOUISVILLE/LOU LGT RAIN  54  53  97 CALM      29.60F FOG
FORT KNOX      LGT RAIN  53  53 100 SW3       29.60R FOG
$$

KYZ035>037-039>044-047>052-055>060-089>105-200800-
NORTHEAST KENTUCKY

CITY           SKY/WX    TMP DP  RH WIND       PRES   REMARKS
LEXINGTON      LGT RAIN  53  50  89 SE13      29.63F
COVINGTON      RAIN      48  47  96 SE13      29.62F FOG
FRANKFORT      LGT RAIN  54  50  86 SE14      29.61F
$$

KYZ054-064>069-076>088-106>120-200800-
SOUTHEAST KENTUCKY

CITY           SKY/WX    TMP DP  RH WIND       PRES   REMARKS
JACKSON        LGT RAIN  50  46  86 E5        29.70F
LONDON         LGT RAIN  51  47  86 S5        29.69F
SOMERSET       RAIN      50  50 100 S5        29.68F
MIDDLESBORO    DRIZZLE   50  50 100 CALM      29.75F
MONTICELLO     LGT RAIN  56  53  90 SW22G28   29.71R
$$





USA.gov is the U.S. government's official web portal to all federal, state and local government web resources and services.